GEFSMA_con_probscp_312.txt.gz
Probability
3 3 1 0 0 0 0 0 0 0 0 0 0 0 0 0 0 0 0 0 1 1 2 4 7 7 7 6 6 5 4 3 3 3 2 1 1 1 0 0 0 0 0
3 3 2 1 0 0 0 0 0 0 0 0 0 0 0 0 0 0 0 0 0 1 2 4 5 5 6 6 6 5 4 3 3 3 3 2 2 2 1 0 0 0 0
2 3 3 2 1 0 0 0 0 0 0 0 0 0 0 0 0 0 0 0 0 0 2 4 4 4 5 5 5 5 3 3 3 3 3 3 3 2 1 1 1 1 0
1 1 2 2 1 0 0 0 0 0 0 0 0 0 0 0 0 0 0 0 0 0 1 2 3 4 4 3 3 4 3 3 3 3 3 3 3 2 1 1 2 1 0
0 0 1 1 1 0 0 0 0 0 0 0 0 0 0 0 0 0 0 0 0 0 0 0 1 2 3 2 2 3 3 4 4 4 3 3 3 2 1 1 1 1 0
0 0 1 0 0 0 0 0 0 0 0 0 0 0 0 0 0 0 0 0 0 0 0 0 0 1 2 3 2 2 3 3 3 3 3 3 4 3 2 1 1 0 0
1 2 2 1 0 0 0 0 0 0 0 0 0 0 0 0 0 0 0 0 0 0 0 0 0 1 2 3 2 2 2 2 2 2 2 3 5 5 5 3 2 1 0
2 3 3 2 1 1 0 0 0 0 0 0 0 0 0 0 0 0 0 0 0 0 0 0 0 1 2 1 1 2 2 2 2 2 1 2 4 5 5 4 2 1 0
3 3 3 2 1 0 0 0 0 0 0 0 1 1 1 1 1 1 0 0 0 0 0 1 1 2 2 1 0 1 1 1 1 2 1 1 1 2 3 3 1 0 0
3 3 3 3 1 0 0 0 0 0 0 1 2 2 2 2 2 2 1 0 0 0 0 1 2 2 2 1 0 0 0 0 0 1 1 0 0 1 2 1 0 0 0
3 3 3 3 2 0 0 0 0 0 1 2 3 3 3 3 3 3 1 0 0 0 0 0 1 1 1 1 0 0 0 0 0 0 0 0 0 0 1 1 1 1 0
3 3 2 2 1 0 0 0 0 0 1 2 3 3 3 3 3 3 2 1 0 0 0 0 0 0 0 0 0 0 0 0 0 0 0 0 0 0 0 1 2 2 1
4 2 1 1 1 2 2 1 0 0 0 1 2 3 3 3 3 3 3 2 1 1 1 0 0 0 0 0 0 0 0 0 0 0 0 0 0 0 0 1 2 3 2
6 3 1 2 3 3 2 1 0 0 1 2 2 3 3 3 3 3 3 3 3 2 2 1 0 0 0 0 0 0 0 0 0 0 0 0 0 0 0 0 1 2 1
6 5 4 4 4 3 2 1 1 1 2 3 3 3 3 3 3 3 4 4 3 3 2 1 0 0 0 0 0 0 0 0 0 0 0 0 0 0 0 0 0 0 0
6 6 7 7 6 4 3 3 3 3 3 3 3 3 3 3 4 4 5 5 4 3 2 1 0 0 0 0 0 0 0 0 0 0 0 0 0 0 0 0 0 0 0
7 7 8 9 8 7 6 6 6 5 4 4 4 3 3 4 5 6 6 6 5 3 2 0 0 0 0 0 0 0 0 0 0 0 0 0 0 0 0 0 0 0 0
9 9 10 11 10 9 8 7 7 6 6 6 5 4 3 4 5 6 5 4 3 3 2 1 0 0 0 0 0 0 0 0 0 0 0 0 0 0 0 0 0 0 0
10 10 11 12 11 9 7 6 5 5 6 6 5 4 3 3 4 4 3 2 2 2 2 1 0 0 0 0 0 0 0 0 0 0 0 0 0 0 0 0 0 0 0
10 10 10 11 10 8 6 5 4 4 4 4 4 3 3 3 3 3 2 2 3 2 2 1 1 0 0 0 0 0 0 0 0 0 0 0 0 0 0 0 0 0 0
9 9 9 9 8 7 5 4 4 5 5 4 4 4 3 3 3 2 1 1 2 2 2 2 1 0 0 0 0 0 0 1 0 0 1 1 0 1 1 1 0 0 0
8 7 7 7 7 7 5 3 3 5 6 6 5 5 4 4 3 2 0 0 1 1 1 1 1 0 0 0 0 0 1 1 1 2 3 2 1 1 3 3 1 0 0
6 6 6 6 6 6 4 3 2 4 6 7 7 6 6 5 3 2 1 0 0 0 0 0 0 0 1 1 0 1 2 2 3 6 7 5 2 1 2 2 1 0 0
5 5 5 5 6 5 3 2 2 2 4 7 6 5 5 4 2 1 1 0 0 0 0 0 0 0 1 1 1 2 2 3 4 6 8 7 4 2 1 1 0 0 0
7 7 7 6 5 4 2 1 1 3 4 5 5 4 4 3 1 1 1 1 1 2 1 1 1 0 1 1 1 2 2 4 5 6 8 9 7 4 1 0 0 0 0
9 10 10 7 4 3 2 1 1 4 5 4 4 4 3 1 0 1 2 3 3 3 2 2 2 1 0 0 0 1 3 5 7 7 8 9 8 5 2 0 0 0 0

GEFSMA_con_probscp_318.txt.gz
Probability
6 6 5 7 7 6 4 3 1 0 0 0 0 0 0 0 0 1 3 2 2 3 2 1 1 1 1 1 2 3 4 4 3 4 5 4 3 2 2 2 1 0 0
8 7 7 7 7 6 5 4 2 1 0 0 0 0 0 0 0 1 2 2 3 4 3 2 2 2 2 3 3 5 6 5 4 4 3 3 2 2 1 1 0 0 0
9 9 9 7 6 6 6 5 4 2 1 0 0 1 1 1 0 0 1 1 2 3 3 3 3 3 5 6 7 8 8 7 5 3 2 2 3 3 2 1 0 0 0
7 8 8 7 7 6 7 6 5 4 2 1 1 2 2 2 1 1 1 0 0 1 3 4 4 5 7 8 8 9 9 6 3 2 2 3 4 5 4 2 1 0 0
4 5 6 7 6 6 7 7 6 6 4 3 2 3 3 3 3 2 2 1 1 1 2 4 5 5 6 7 7 7 8 5 3 1 1 2 4 6 5 3 1 0 0
3 3 4 5 5 6 6 6 6 6 6 5 4 4 4 4 3 3 3 3 2 2 2 2 3 4 6 7 7 8 7 7 5 3 2 1 3 4 4 2 1 0 0
3 4 4 4 4 5 4 5 5 4 4 5 4 4 5 5 5 4 3 3 3 2 1 0 2 4 5 6 7 7 7 6 6 5 3 2 1 2 1 0 0 0 0
3 4 5 4 4 4 3 4 5 3 2 4 5 5 5 6 6 5 4 4 4 2 1 1 2 5 5 5 5 5 5 5 4 4 3 2 1 1 0 0 0 0 0
3 4 4 4 3 3 4 4 4 3 2 3 5 6 6 7 7 6 4 4 4 3 3 2 3 4 5 5 5 4 3 3 3 2 3 3 2 2 1 1 2 1 0
4 3 3 3 3 4 5 5 4 3 1 2 4 6 7 7 7 6 5 4 4 4 4 4 4 4 4 6 6 5 3 3 2 1 2 2 2 2 3 3 2 1 1
6 5 4 4 4 5 6 7 6 4 3 3 4 6 7 7 7 7 6 5 3 3 4 5 5 4 5 7 7 5 3 2 1 0 1 1 1 2 3 3 3 2 1
7 6 7 9 9 8 9 11 10 8 6 6 7 7 7 7 7 7 6 4 3 3 5 7 7 6 6 8 7 5 2 1 0 0 0 0 0 1 1 2 3 2 1
7 7 10 14 15 14 13 14 13 11 9 9 9 8 7 7 7 7 6 5 4 3 4 7 7 5 6 8 7 4 1 0 0 0 0 0 0 0 0 0 1 1 1
7 8 12 17 17 15 15 15 14 12 12 11 9 8 7 6 6 7 7 7 5 4 3 5 5 4 4 6 6 4 2 1 0 0 0 0 0 0 0 0 0 0 0
9 10 14 17 16 15 16 16 14 14 15 14 11 10 8 7 7 7 8 8 7 5 3 3 4 3 3 4 4 4 3 1 0 0 0 0 0 0 0 0 0 0 0
13 13 15 17 16 15 18 19 18 18 19 17 15 14 12 10 9 8 8 8 7 7 6 5 4 4 5 5 5 6 5 3 1 0 0 0 0 0 0 0 0 0 0
15 16 17 18 17 15 18 21 21 21 22 21 19 18 16 15 14 12 10 8 8 8 8 7 6 7 7 7 7 6 5 5 3 1 0 0 0 0 0 0 0 0 0
17 18 19 19 17 15 16 17 18 19 20 20 21 22 20 20 20 18 14 11 10 10 10 9 8 9 8 6 6 5 5 5 4 1 0 0 0 0 0 0 0 0 0
17 18 19 18 16 15 15 15 15 15 16 17 21 23 22 22 23 23 20 15 12 13 14 11 10 11 9 7 6 5 5 6 3 1 0 0 0 0 0 0 0 0 0
15 16 17 17 16 16 15 15 14 13 13 14 17 20 20 19 20 22 22 20 17 16 16 15 14 12 11 10 9 8 9 9 6 4 4 4 2 1 0 0 0 0 0
13 14 16 18 17 16 14 13 13 12 12 12 14 17 18 16 15 16 16 17 17 17 17 17 16 15 14 15 13 13 14 13 9 7 8 9 8 6 3 2 1 0 0
15 15 16 18 17 14 11 10 10 11 11 11 12 15 17 15 14 12 10 9 10 11 13 16 17 18 18 18 16 15 15 15 11 10 11 11 11 11 9 5 2 0 0
17 17 16 16 16 13 8 6 6 8 11 11 12 14 15 15 16 15 12 7 6 7 9 14 18 19 19 17 14 13 14 14 13 12 12 11 12 13 12 7 3 0 0
17 17 16 15 15 13 7 3 3 6 9 10 11 12 14 15 16 17 17 15 13 10 9 11 15 17 15 13 11 11 12 12 12 13 14 12 12 12 12 10 4 0 0
13 14 15 16 17 13 7 2 2 5 7 9 11 11 11 12 11 12 17 22 21 16 11 8 8 9 9 8 8 9 10 9 8 10 13 14 13 12 12 11 6 2 1
11 12 15 17 16 13 7 2 2 5 6 8 11 10 8 8 7 7 15 23 24 19 13 8 5 5 6 5 5 7 8 8 7 9 13 15 15 12 10 9 8 4 1

GEFSMA_con_probscp_324.txt.gz
Probability
14 14 14 14 14 14 12 9 8 8 7 5 4 3 3 3 4 4 6 7 8 8 7 5 5 6 7 7 7 6 6 6 6 5 5 5 5 6 7 6 5 3 1
15 15 16 16 16 15 13 10 9 9 8 7 5 3 3 4 4 5 5 6 7 7 6 5 6 6 6 6 6 6 6 6 6 5 5 5 5 6 6 5 3 2 1
14 16 17 18 17 15 14 12 10 10 9 7 6 5 5 5 6 6 6 6 6 5 5 6 8 8 7 6 7 8 8 7 7 6 6 6 5 4 4 3 1 0 0
13 14 17 18 17 16 14 13 13 12 10 7 7 7 7 6 6 7 7 8 7 5 5 7 9 9 8 7 8 9 9 8 8 8 6 5 3 2 2 2 1 1 0
12 12 14 16 17 16 14 14 15 14 11 8 7 9 9 8 7 7 8 8 7 7 7 7 8 8 8 8 8 8 9 9 8 7 6 4 2 1 0 1 2 2 1
12 12 12 13 15 14 13 14 15 15 13 10 8 9 11 11 9 8 7 7 8 9 8 6 7 8 9 10 10 10 10 10 8 7 6 5 3 2 1 0 1 2 2
13 14 13 13 14 13 12 13 15 14 12 10 9 9 11 11 11 9 7 7 9 9 8 8 8 8 9 10 11 11 11 11 9 8 7 6 4 3 2 1 0 1 2
14 14 14 12 11 12 12 13 14 13 11 9 7 7 10 11 10 7 6 8 10 10 10 10 11 10 10 10 9 9 9 9 8 7 7 6 5 4 3 2 1 1 1
14 15 15 12 10 10 12 12 13 13 12 9 7 7 9 11 9 6 5 6 9 10 10 10 11 12 11 11 9 7 8 8 8 7 7 6 5 3 3 3 3 2 1
15 17 17 15 13 12 12 11 12 13 13 11 9 8 8 9 9 7 4 4 8 11 11 9 10 11 12 12 11 8 8 8 8 8 7 5 4 3 2 3 3 3 2
17 18 18 17 16 16 15 14 13 13 13 11 9 7 7 9 9 7 5 6 8 11 11 10 10 11 13 13 13 10 8 8 7 6 5 5 4 2 1 2 2 2 2
19 19 19 18 19 20 21 20 19 16 13 12 10 8 9 10 8 7 7 8 10 12 11 10 11 12 13 14 14 12 9 7 4 2 2 2 3 2 0 1 1 1 1
22 21 21 21 21 21 23 24 24 22 17 15 13 13 13 11 9 8 8 9 11 12 10 9 10 11 12 14 15 13 10 6 2 0 0 0 1 0 0 0 0 0 0
21 22 24 23 21 20 22 24 25 24 21 17 15 16 15 12 9 8 9 10 10 10 10 9 8 7 10 14 14 12 11 6 1 0 0 0 0 0 0 0 0 0 0
19 21 23 22 19 18 20 23 24 24 23 20 18 17 16 13 10 10 13 15 11 8 8 10 9 8 9 11 10 11 12 8 3 0 0 0 0 0 0 0 0 0 0
20 20 20 20 18 17 19 22 23 24 24 22 20 19 18 16 14 14 17 20 17 11 8 10 12 12 11 10 9 12 15 12 6 2 0 0 0 0 0 0 0 0 0
23 22 20 19 17 18 20 21 22 22 22 20 18 17 17 17 16 15 18 22 21 16 11 11 15 17 17 14 13 15 16 13 8 4 1 0 0 0 0 0 0 0 0
24 23 22 20 18 17 19 20 21 20 18 16 15 15 15 15 15 15 16 19 19 17 14 14 16 19 20 17 15 16 16 12 8 5 1 0 0 0 0 0 0 0 0
23 23 23 21 17 16 17 18 19 18 18 17 15 15 14 13 15 15 15 15 16 14 14 15 15 16 17 16 15 16 15 11 7 4 2 1 0 0 0 0 0 0 0
21 22 22 20 18 16 14 14 15 14 14 16 16 16 14 13 14 15 14 14 14 13 12 14 14 14 14 15 16 16 14 11 7 5 4 3 2 1 0 0 0 0 0
22 23 23 22 19 16 13 11 11 9 9 12 14 14 12 11 11 12 12 13 13 12 11 12 12 13 14 16 16 16 14 12 10 7 7 6 4 3 1 1 0 0 0
26 25 25 23 20 16 12 9 8 8 8 9 10 9 8 7 8 10 10 10 10 9 9 10 11 12 15 18 18 16 14 13 11 11 10 8 7 5 4 3 2 0 0
27 27 26 24 20 15 10 7 6 7 8 8 9 8 6 5 7 9 9 8 7 6 6 8 10 11 14 18 19 16 14 13 11 12 11 8 7 7 5 5 3 1 0
28 27 27 25 21 14 8 5 6 7 8 8 10 11 10 8 8 9 10 9 8 7 6 6 8 9 10 13 16 17 16 13 10 9 8 6 5 5 5 4 3 2 1
28 27 26 27 25 18 8 4 6 9 10 11 12 13 13 11 8 8 10 13 13 13 10 7 6 5 4 5 9 14 16 13 8 6 5 4 4 4 4 4 4 3 1
28 26 26 28 28 22 11 4 6 10 13 14 14 13 11 9 8 8 10 14 16 15 13 10 7 3 1 1 4 9 14 13 7 4 4 4 4 4 4 5 5 4 2

GEFSMA_con_probscp_330.txt.gz
Probability
1 1 1 2 3 3 3 3 1 0 0 1 2 3 2 1 1 1 0 1 3 6 6 6 8 9 9 8 7 7 7 7 6 5 3 2 1 0 0 0 1 3 4
3 3 2 3 3 3 3 3 2 1 0 0 1 2 1 0 0 0 0 1 3 4 4 5 7 9 9 9 8 7 7 7 6 5 3 1 0 0 0 0 1 4 5
5 4 3 3 3 3 3 3 3 1 0 0 1 1 1 0 0 0 0 0 1 3 4 4 6 9 9 8 8 8 6 6 6 4 1 0 0 0 1 1 2 4 4
5 5 4 3 3 3 3 2 1 0 0 0 0 0 0 0 0 1 0 0 0 1 2 3 6 7 7 5 5 5 4 4 4 3 1 1 1 1 1 2 2 2 2
6 6 5 3 3 3 3 1 0 0 0 0 0 0 0 0 0 0 0 0 0 0 0 1 3 4 3 2 2 2 3 3 3 2 2 2 2 1 1 1 1 1 0
7 7 6 4 3 3 2 1 0 0 0 0 0 0 0 0 0 0 0 0 0 0 0 0 1 1 1 1 1 1 2 2 2 2 2 4 3 1 0 1 2 2 1
6 7 8 6 4 3 2 1 0 0 0 0 0 0 0 0 0 0 0 0 0 0 1 1 0 0 0 0 0 0 1 1 1 1 1 3 3 1 1 2 3 2 2
6 7 8 7 4 1 1 0 0 0 0 0 0 0 0 0 0 0 0 0 0 0 1 2 1 0 0 0 0 0 1 1 1 0 1 2 2 1 2 3 3 3 3
7 7 7 6 4 2 1 1 0 0 0 0 0 0 0 0 0 0 0 0 0 0 1 1 1 0 0 0 0 0 1 2 2 1 1 2 2 2 2 3 3 3 3
6 6 6 5 4 3 2 2 1 0 0 0 0 0 0 0 0 0 0 0 0 0 0 0 0 0 0 0 0 0 1 3 4 3 3 4 5 4 2 2 3 3 3
3 4 4 4 4 3 3 2 1 0 0 0 0 0 0 0 0 0 0 0 0 0 0 0 0 0 0 0 0 0 1 3 4 4 5 7 8 8 5 4 3 3 2
1 2 3 3 3 3 3 2 1 1 1 1 0 0 1 1 1 0 0 0 0 0 0 0 0 0 0 0 0 0 1 1 2 3 5 7 9 10 10 8 6 3 2
2 2 2 3 3 3 3 2 1 2 3 2 1 1 1 2 2 1 1 0 0 0 0 0 0 0 1 0 0 0 0 0 1 1 2 4 6 8 9 9 7 5 4
2 1 1 2 3 3 3 2 1 1 2 3 3 2 2 2 2 2 2 1 0 0 0 0 0 0 0 0 0 0 0 0 0 0 0 1 2 3 4 5 5 4 4
1 0 1 2 4 4 3 3 1 0 1 2 3 3 3 2 2 3 3 2 1 0 0 0 0 0 0 0 0 0 0 0 0 0 0 0 0 0 1 1 1 1 2
0 0 1 4 5 5 4 4 3 1 0 1 1 2 2 2 3 3 2 3 2 1 0 0 0 0 0 0 0 0 0 0 0 0 0 0 0 0 0 0 0 0 0
1 1 3 5 6 6 6 6 4 2 0 0 0 1 1 1 2 2 3 3 3 2 1 0 0 0 0 0 1 2 1 0 0 0 0 0 0 0 0 0 0 0 0
3 4 5 6 7 7 7 7 6 4 2 1 0 0 0 0 1 1 2 3 3 3 2 1 0 0 0 1 2 3 3 1 0 0 0 0 0 0 0 0 0 0 0
5 6 6 6 7 8 8 8 7 6 5 3 1 0 0 0 0 0 1 2 3 3 3 1 1 0 0 1 3 4 4 3 1 0 0 1 1 0 0 0 0 0 0
7 8 7 7 7 7 7 7 7 7 6 5 3 1 0 0 0 0 0 1 2 3 3 2 1 0 1 2 4 5 5 3 1 0 1 2 2 1 0 0 0 0 0
9 10 11 10 8 7 7 6 6 6 6 6 5 3 1 0 0 0 0 0 1 3 3 2 1 0 1 3 5 6 6 4 2 2 2 3 2 1 1 1 1 0 0
12 13 14 13 10 8 7 6 6 6 6 6 6 5 3 1 0 0 0 0 1 2 3 2 1 0 1 3 5 7 7 5 3 3 3 2 3 3 2 2 2 1 0
16 17 16 15 13 10 7 6 6 6 6 6 6 6 5 3 1 0 0 0 0 1 2 2 2 1 0 1 4 6 6 5 4 3 4 4 4 4 3 3 3 2 1
18 19 19 17 15 11 8 6 5 6 6 6 6 6 4 3 2 0 0 0 0 0 0 1 1 2 1 1 2 4 4 3 3 4 5 6 6 5 3 3 3 2 1
19 19 19 18 16 13 9 5 4 4 6 6 6 6 4 3 2 0 0 0 0 1 1 1 1 2 2 1 1 3 3 3 3 4 6 7 6 5 4 3 3 3 2
19 19 18 17 16 14 10 5 2 4 6 6 6 6 4 3 2 1 0 0 1 2 2 2 2 2 1 0 1 3 4 4 3 5 7 7 6 5 4 3 3 3 3